CAPE
0 0 0 0 0 0 0 0 0 0 0 0 146 411 363 510 542 574 410 282 149 202 209 380 499 567 478 381 429 415 519 482 418 296 224 326 251 140 54 18 5 20 168 140
0 0 0 0 0 0 0 0 0 0 0 0 208 407 462 568 616 595 506 422 240 143 111 313 594 595 547 401 401 458 499 349 266 306 299 238 142 61 43 7 37 16 305 75
0 0 0 0 0 0 0 0 0 0 0 364 280 266 212 245 465 615 593 511 460 164 166 319 480 414 507 373 344 396 421 185 57 81 201 99 60 43 15 38 38 156 134 76
0 0 0 0 0 0 0 0 0 0 0 0 323 0 0 0 25 408 628 562 555 324 218 251 208 305 431 360 338 444 372 164 21 43 101 54 37 37 50 57 93 125 84 44
0 0 0 0 0 0 0 0 0 0 0 0 0 0 0 0 0 0 381 619 564 435 304 215 139 208 343 345 320 359 338 106 20 17 9 18 28 28 35 40 38 52 143 238
0 0 0 0 0 0 0 0 0 0 0 0 0 0 0 0 0 1 261 422 673 550 350 218 150 164 345 392 316 282 358 73 6 18 12 5 41 38 32 13 23 138 130 295
0 0 0 0 0 0 0 0 0 0 0 0 0 0 0 0 0 7 43 377 574 656 569 227 188 185 359 422 365 163 306 97 0 11 21 11 5 9 37 35 52 94 142 455
0 0 0 0 0 0 0 0 0 0 0 0 0 0 0 0 7 51 93 177 375 646 731 254 196 286 346 454 451 319 247 145 1 0 0 0 4 13 64 12 43 47 78 496
0 0 0 0 0 0 0 0 0 0 0 0 0 0 0 0 0 86 113 104 152 385 822 398 178 404 318 438 495 364 268 176 65 0 0 0 0 1 12 0 122 84 23 222
0 0 0 0 0 0 0 0 0 0 0 0 0 0 0 0 0 24 50 120 143 187 408 256 282 417 330 419 456 370 257 182 84 0 0 0 0 0 0 79 338 235 310 236
0 0 0 0 0 0 0 0 0 0 0 0 0 0 0 0 0 0 3 63 77 136 182 199 383 487 443 408 445 392 305 210 220 20 0 0 0 0 74 193 335 254 333 396
0 0 0 0 0 0 0 4 1 0 0 0 0 0 0 0 0 0 0 46 133 107 111 314 454 414 504 581 503 431 331 319 266 298 70 5 50 63 143 439 532 258 280 269
0 0 0 0 0 21 37 77 21 10 1 0 0 0 0 0 0 0 0 26 263 234 177 106 193 220 296 452 527 472 407 401 335 431 434 270 170 200 222 381 392 457 309 320
0 0 0 0 3 4 101 112 109 43 3 0 0 0 3 1 0 1 0 0 160 336 250 114 189 313 444 401 471 573 501 421 432 469 467 483 558 571 490 420 349 385 634 781
0 0 0 0 0 4 78 132 156 86 75 3 2 0 8 0 30 78 24 0 33 191 307 252 437 493 632 525 504 658 663 606 613 473 612 594 596 641 622 525 516 513 553 562
0 0 0 0 0 0 0 62 194 214 171 38 43 0 0 471 242 125 83 0 48 145 383 258 536 742 703 718 663 663 750 813 855 775 771 712 631 616 727 824 900 823 769 738
0 0 0 0 0 0 0 0 0 1 102 94 43 13 564 484 320 239 201 171 183 181 397 345 572 782 817 836 752 721 804 894 891 900 914 885 792 654 763 878 911 790 752 676
0 0 0 0 0 0 0 0 0 65 528 752 475 588 471 362 377 419 265 358 285 168 331 335 224 649 781 810 839 890 1005 971 916 861 870 1126 1045 953 975 962 919 739 628 623
0 0 0 0 0 0 0 0 96 75 147 639 363 361 315 180 269 235 455 590 446 375 404 363 82 326 459 811 1026 1097 1112 1080 1094 1043 890 1060 1468 1304 1161 1131 824 670 671 879
0 0 0 0 0 0 0 0 134 122 103 392 335 207 203 276 243 212 337 447 712 544 659 803 596 668 593 902 1107 1233 1310 1244 801 1013 1007 1292 1371 1443 1346 1195 889 580 135 369
0 0 0 0 0 0 0 0 164 165 0 213 345 291 240 233 189 441 518 455 626 730 838 1413 1243 1088 1040 970 1141 1270 1343 1315 1241 1250 1287 1236 1221 1187 1340 1326 930 735 483 670
0 0 0 0 0 0 0 0 56 0 183 165 142 90 55 52 77 129 460 506 741 832 1076 1489 1429 1273 1272 1160 1165 1161 1220 1224 1283 1306 1353 1343 1281 1362 1284 1292 1270 1221 1214 1283
0 0 0 0 0 17 91 16 19 4 11 33 16 25 6 0 0 0 265 492 447 877 1015 1490 1778 1597 1376 1288 1208 1126 1133 1205 1273 1293 1387 1445 1517 1415 1388 1562 1466 1656 1581 1016
0 0 0 0 0 0 0 0 0 34 15 35 37 68 87 5 0 0 105 413 308 478 791 1365 1813 1915 1651 1397 1207 1093 1076 1244 1334 1441 1436 1516 1577 1689 1790 1880 1818 1531 702 398
0 0 0 0 0 0 0 0 3 0 46 114 30 110 50 14 0 0 4 169 294 236 387 775 1497 1855 1863 1677 1464 1236 1266 1503 1596 1717 1731 1928 2058 2173 2122 1946 1420 659 386 272
0 0 0 0 0 0 0 0 0 0 21 36 43 14 16 0 2 0 1 118 235 196 235 355 885 1460 1837 1784 1680 1588 1530 1725 1683 1607 1780 2021 2179 2050 1854 1447 794 584 506 360
CIN
0 0 0 0 0 0 0 0 0 0 0 0 -248 -178 -165 -143 -111 -162 -67 -46 -30 -164 -131 -67 -81 -54 -49 -76 -63 -118 -81 -57 -41 -18 -11 -5 -13 -18 -44 -64 -91 -149 -101 -104
0 0 0 0 0 0 0 0 0 0 0 0 -241 -193 -183 -160 -152 -121 -94 -58 -47 -84 -48 -130 -65 -60 -63 -84 -65 -105 -75 -78 -60 -19 -9 -11 -17 -33 -55 -103 -73 -138 -68 -122
0 0 0 0 0 0 0 0 0 0 0 -143 -86 -108 -67 -200 -373 -305 -184 -118 -77 -115 -117 -95 -67 -106 -78 -106 -91 -97 -87 -89 -134 -88 -7 -17 -29 -32 -78 -62 -106 -90 -87 -153
0 0 0 0 0 0 0 0 0 0 0 0 -121 0 0 0 -480 -411 -278 -166 -110 -55 -156 -97 -135 -152 -113 -69 -131 -90 -96 -82 -127 -107 -59 -50 -79 -85 -53 -56 -56 -91 -155 -221
0 0 0 0 0 0 0 0 0 0 0 0 0 0 0 0 0 0 -394 -249 -174 -89 -127 -126 -198 -219 -199 -84 -117 -101 -91 -108 -148 -140 -121 -104 -61 -36 -36 -35 -53 -163 -59 -49
0 0 0 0 0 0 0 0 0 0 0 0 0 0 0 0 0 -247 -543 -367 -226 -183 -72 -120 -96 -268 -244 -133 -127 -137 -92 -123 -97 -156 -125 -122 -88 -89 -61 -95 -107 -103 -73 -62
0 0 0 0 0 0 0 0 0 0 0 0 0 0 0 0 0 -37 -242 -425 -286 -184 -82 -160 -138 -203 -289 -208 -210 -165 -135 -124 0 -168 -128 -131 -113 -75 -75 -55 -87 -86 -58 -90
0 0 0 0 0 0 0 0 0 0 0 0 0 0 0 0 -75 -74 -18 -480 -319 -178 -84 -133 -115 -91 -328 -282 -260 -263 -199 -147 -5 -2 0 0 -117 -103 -71 -63 -41 -62 -111 -141
0 0 0 0 0 0 0 0 0 0 0 0 0 0 0 0 -3 -167 -174 -34 -426 -264 -141 -142 -75 -107 -399 -289 -286 -229 -215 -176 -31 0 0 0 0 -15 -51 0 -70 -92 -95 -62
0 0 0 0 0 0 0 0 0 0 0 0 0 0 0 0 -9 -40 -41 -167 -421 -444 -215 -168 -94 -98 -153 -352 -297 -269 -155 -158 -18 0 0 0 0 0 0 -37 -35 -46 -76 -65
0 0 0 0 0 0 0 0 0 0 0 0 0 0 0 0 0 -70 -53 -23 -35 -397 -363 -185 -130 -110 -43 -349 -244 -225 -5 -102 -17 -34 0 0 0 0 -178 -32 -45 -21 -51 -96
0 0 0 0 0 -3 -33 -121 -25 0 0 0 0 0 0 0 0 0 -6 -24 -20 -13 -46 -260 -183 -133 -78 -50 -337 -304 -8 -10 -17 -20 -258 -277 -252 -104 -118 -70 -49 -62 -38 -27
0 0 0 0 0 -169 -159 -152 -123 -18 -2 0 0 0 0 0 0 0 0 -440 -146 -99 -42 -66 -447 -344 -36 -422 -322 -273 -234 -14 -13 -21 -196 -196 -171 -126 -102 -75 -53 -101 -122 -110
0 0 0 0 -74 -128 -135 -117 -132 -140 -20 0 0 -26 -14 -22 0 -82 0 0 -103 -205 -162 -121 -49 -290 -28 -198 -306 -301 -260 -92 -17 -15 -60 -164 -145 -111 -96 -79 -85 -91 -62 -42
0 0 0 0 -15 -35 -104 -97 -111 -122 -114 -69 -2 0 -34 0 -149 -265 -210 0 -142 -182 -35 -446 -168 -37 -45 -26 -303 -321 -312 -305 -310 -263 -242 -214 -210 -199 -184 -158 -94 -82 -63 -64
0 0 0 0 0 0 0 -154 -80 -77 -100 -110 -132 0 0 -337 -253 -143 -204 -3 -293 -48 -15 -285 -250 -66 -39 -29 -280 -334 -335 -329 -285 -244 -245 -229 -174 -163 -141 -121 -78 -72 -119 -67
0 0 0 0 0 0 0 0 0 -65 -97 -79 -95 -89 -321 -340 -355 -339 -373 -305 -401 -133 -19 -128 -367 -131 -66 -18 -177 -256 -388 -276 -215 -233 -188 -167 -143 -150 -182 -129 -72 -69 -92 -56
0 0 0 0 0 0 0 -19 0 -168 -165 -187 -230 -220 -215 -149 -140 -198 -234 -303 -270 -414 -12 -101 -475 -280 -161 -409 -321 -340 -330 -303 -274 -276 -212 -129 -133 -167 -151 -170 -83 -62 -114 -84
0 0 0 0 0 0 0 -4 -118 -74 -79 -158 -167 -154 -149 -216 -213 -174 -269 -224 -239 -330 -16 -68 -40 -78 -146 -457 -346 -336 -272 -272 -186 -209 -230 -169 -89 -118 -121 -78 -148 -66 -102 -39
0 0 0 0 0 0 0 0 -59 -88 -93 -170 -188 -159 -151 -155 -151 -153 -215 -173 -149 -251 -556 -410 -293 -99 -60 -449 -359 -316 -268 -225 -285 -230 -224 -52 -121 -102 -94 -74 -90 -50 -254 -184
0 0 0 0 0 0 0 0 -97 -40 0 -131 -99 -97 -85 -92 -129 -138 -180 -78 -100 -427 -323 -235 -123 -59 -54 -351 -331 -276 -242 -222 -269 -213 -212 -184 -165 -78 -57 -57 -27 -29 -206 -116
0 0 0 0 0 0 0 0 -31 0 -48 -60 -62 -146 -214 -103 -92 -94 -114 -49 -70 -105 -202 -302 -175 -68 -70 -46 -327 -265 -210 -220 -166 -131 -171 -79 -79 -52 -49 -43 -39 -29 -35 -18
0 0 0 0 0 -67 -12 -9 -4 -11 -29 -43 -244 -177 -256 0 0 0 -17 -93 -171 -45 -111 -255 -255 -150 -52 -59 -56 -280 -236 -170 -132 -119 -80 -43 -55 -50 -38 -34 -43 -23 -10 -13
0 0 0 0 0 0 0 0 0 -35 -43 -66 -138 -152 -119 -187 0 0 -27 -64 -125 -100 -36 -140 -187 -148 -147 -156 -57 -49 -167 -166 -111 -65 -64 -87 -58 -39 -20 -13 -8 -11 -46 -72
0 0 0 0 0 0 0 0 -13 -28 -31 -70 -71 -148 -162 -226 0 0 -40 -59 -71 -119 -86 -135 -114 -133 -103 -133 -115 -11 -51 -89 -74 -52 -57 -50 -34 -16 -11 -5 -11 -58 -98 -114
0 0 0 0 0 0 0 0 0 0 -35 -30 -31 -197 -210 -18 -121 0 -3 -41 -134 -154 -100 -103 -63 -62 -169 -85 -106 -60 -140 -79 -40 -42 -51 -33 -13 -8 -5 -5 -42 -65 -68 -87
Wind_Speed
nan nan nan nan nan nan nan nan nan nan nan nan 11 11 12 10 11 10 6 9 8 5 7 10 10 9 12 15 15 10 9 7 9 10 9 8 8 14 nan nan nan nan 5 4
nan nan nan nan nan nan nan nan nan nan nan nan 6 12 9 6 7 14 15 10 11 12 11 11 11 10 9 14 12 9 7 6 8 10 10 10 14 nan nan nan nan nan 3 nan
nan nan nan nan nan nan nan nan nan nan nan 10 3 9 7 6 1 7 13 16 12 13 11 11 11 8 9 12 13 8 6 5 nan nan 7 nan nan nan nan nan nan 5 2 nan
nan nan nan nan nan nan nan nan nan nan nan nan 15 nan nan nan nan 4 10 15 13 12 11 13 12 6 10 10 14 12 9 6 nan nan 2 nan nan nan nan nan nan 9 nan nan
nan nan nan nan nan nan nan nan nan nan nan nan nan nan nan nan nan nan 16 18 10 14 18 19 17 5 9 8 16 12 11 8 nan nan nan nan nan nan nan nan nan nan 11 9
nan nan nan nan nan nan nan nan nan nan nan nan nan nan nan nan nan nan 13 13 17 19 19 16 10 7 9 12 16 22 9 nan nan nan nan nan nan nan nan nan nan 13 14 12
nan nan nan nan nan nan nan nan nan nan nan nan nan nan nan nan nan nan nan 16 17 14 15 14 14 14 12 13 18 21 12 nan nan nan nan nan nan nan nan nan nan nan 11 13
nan nan nan nan nan nan nan nan nan nan nan nan nan nan nan nan nan nan nan 11 17 17 15 17 21 16 16 17 19 17 16 7 nan nan nan nan nan nan nan nan nan nan nan 12
nan nan nan nan nan nan nan nan nan nan nan nan nan nan nan nan nan nan 5 4 21 23 22 17 18 20 19 20 19 20 14 12 nan nan nan nan nan nan nan nan 11 nan nan 12
nan nan nan nan nan nan nan nan nan nan nan nan nan nan nan nan nan nan nan 9 13 14 17 20 19 22 22 21 19 16 19 14 nan nan nan nan nan nan nan nan 9 9 11 11
nan nan nan nan nan nan nan nan nan nan nan nan nan nan nan nan nan nan nan nan nan 10 16 18 18 20 21 22 20 20 17 14 14 nan nan nan nan nan nan 11 9 8 12 11
nan nan nan nan nan nan nan nan nan nan nan nan nan nan nan nan nan nan nan nan 4 8 11 14 15 18 22 27 24 20 19 14 13 13 nan nan nan nan 7 8 9 10 10 13
nan nan nan nan nan nan nan nan nan nan nan nan nan nan nan nan nan nan nan nan 14 9 10 10 13 17 22 23 22 21 21 18 17 16 14 10 11 11 6 7 10 11 11 13
nan nan nan nan nan nan 36 36 33 nan nan nan nan nan nan nan nan nan nan nan 11 13 13 12 15 16 21 23 20 20 20 19 23 23 17 15 13 11 9 10 13 11 11 12
nan nan nan nan nan nan nan 38 38 nan nan nan nan nan nan nan nan nan nan nan nan 13 13 14 11 12 17 21 18 16 13 18 20 18 18 14 13 14 14 15 15 14 13 12
nan nan nan nan nan nan nan nan 37 38 35 nan nan nan nan 28 25 15 nan nan nan 7 10 14 15 19 14 21 20 18 15 16 19 23 14 16 14 10 11 16 16 15 15 17
nan nan nan nan nan nan nan nan nan nan 41 nan nan nan 44 36 34 25 23 19 23 16 17 14 19 21 12 18 24 19 21 15 11 21 24 16 15 9 10 17 17 18 17 21
nan nan nan nan nan nan nan nan nan nan 39 41 39 39 36 32 32 25 28 24 27 22 17 16 13 10 11 14 15 21 22 18 21 24 23 10 11 7 12 16 17 18 26 24
nan nan nan nan nan nan nan nan nan nan 32 40 39 39 38 32 31 40 43 38 23 22 20 20 nan 16 16 20 20 18 21 21 14 19 15 13 4 13 14 14 20 27 27 24
nan nan nan nan nan nan nan nan 34 38 35 38 38 37 36 38 40 33 45 41 31 27 22 22 22 29 22 21 19 16 17 17 13 17 21 5 6 9 9 12 16 16 27 29
nan nan nan nan nan nan nan nan 33 38 nan 32 34 35 38 40 37 32 35 36 33 33 27 25 18 24 22 23 20 13 15 12 12 17 13 8 6 6 8 10 7 7 6 5
nan nan nan nan nan nan nan nan nan nan 37 33 34 nan nan nan nan 34 39 39 29 38 34 28 24 23 21 19 19 13 11 13 12 13 12 9 7 7 9 12 11 10 11 11
nan nan nan nan nan nan nan nan nan nan nan nan nan nan nan nan nan nan 40 39 35 38 38 33 28 25 22 20 16 14 15 19 16 15 15 11 11 13 15 18 16 17 16 15
nan nan nan nan nan nan nan nan nan nan nan nan nan nan nan nan nan nan 36 39 40 40 40 38 37 30 29 27 24 20 24 23 21 20 23 20 17 19 20 20 21 21 20 19
nan nan nan nan nan nan nan nan nan nan nan 31 nan 28 nan nan nan nan nan 38 38 43 42 42 43 44 42 40 31 32 30 24 27 26 22 25 25 25 25 25 23 22 23 23
nan nan nan nan nan nan nan nan nan nan nan nan nan nan nan nan nan nan nan 38 37 40 42 38 36 41 47 45 40 34 32 26 28 27 23 23 26 24 24 26 25 29 28 25
Wind_Direction
nan nan nan nan nan nan nan nan nan nan nan nan 18 59 101 349 17 18 1 334 340 333 273 285 282 280 294 280 266 264 254 255 267 265 259 244 225 193 nan nan nan nan 105 53
nan nan nan nan nan nan nan nan nan nan nan nan 342 70 124 343 5 0 354 322 325 299 280 277 282 288 318 312 280 259 249 258 262 268 248 229 217 nan nan nan nan nan 143 nan
nan nan nan nan nan nan nan nan nan nan nan 325 23 108 141 187 276 333 342 326 277 318 311 299 305 305 302 308 303 294 276 279 nan nan 228 nan nan nan nan nan nan 196 225 nan
nan nan nan nan nan nan nan nan nan nan nan nan 322 nan nan nan nan 299 321 311 300 290 296 301 299 304 295 301 295 303 286 278 nan nan 225 nan nan nan nan nan nan 196 nan nan
nan nan nan nan nan nan nan nan nan nan nan nan nan nan nan nan nan nan 0 355 330 323 323 322 324 299 289 281 295 287 283 260 nan nan nan nan nan nan nan nan nan nan 186 166
nan nan nan nan nan nan nan nan nan nan nan nan nan nan nan nan nan nan 32 358 353 343 334 340 349 285 291 275 281 261 266 nan nan nan nan nan nan nan nan nan nan 196 192 198
nan nan nan nan nan nan nan nan nan nan nan nan nan nan nan nan nan nan nan 23 12 348 327 318 315 315 304 298 291 300 283 nan nan nan nan nan nan nan nan nan nan nan 201 206
nan nan nan nan nan nan nan nan nan nan nan nan nan nan nan nan nan nan nan 19 7 1 328 329 333 333 332 303 286 286 280 253 nan nan nan nan nan nan nan nan nan nan nan 202
nan nan nan nan nan nan nan nan nan nan nan nan nan nan nan nan nan nan 165 10 12 16 15 355 327 325 324 328 327 280 292 276 nan nan nan nan nan nan nan nan 196 nan nan 199
nan nan nan nan nan nan nan nan nan nan nan nan nan nan nan nan nan nan nan 55 39 7 0 351 325 319 317 325 331 302 288 303 nan nan nan nan nan nan nan nan 205 209 204 221
nan nan nan nan nan nan nan nan nan nan nan nan nan nan nan nan nan nan nan nan nan 17 354 344 341 324 312 315 317 315 290 287 274 nan nan nan nan nan nan 240 231 228 220 225
nan nan nan nan nan nan nan nan nan nan nan nan nan nan nan nan nan nan nan nan 318 327 357 333 321 319 323 322 314 319 290 284 270 258 nan nan nan nan 234 236 233 223 220 224
nan nan nan nan nan nan nan nan nan nan nan nan nan nan nan nan nan nan nan nan 267 312 298 318 309 328 332 326 316 308 295 286 264 256 254 255 273 261 245 233 232 230 225 220
nan nan nan nan nan nan 266 263 258 nan nan nan nan nan nan nan nan nan nan nan 282 313 335 315 318 338 337 330 314 303 289 281 263 251 253 251 271 267 261 252 251 244 229 220
nan nan nan nan nan nan nan 271 273 nan nan nan nan nan nan nan nan nan nan nan nan 296 315 329 334 334 328 328 326 326 311 290 277 255 251 250 251 261 261 253 253 265 260 251
nan nan nan nan nan nan nan nan 274 273 271 nan nan nan nan 262 256 236 nan nan nan 246 286 307 307 299 330 332 337 332 321 313 285 264 245 240 238 254 262 253 257 253 261 263
nan nan nan nan nan nan nan nan nan nan 274 nan nan nan 254 244 249 241 239 224 213 231 279 292 309 313 333 351 333 326 320 296 294 245 251 246 255 253 253 252 253 251 257 253
nan nan nan nan nan nan nan nan nan nan 264 258 258 258 247 244 233 227 243 232 210 220 250 272 292 295 334 332 324 314 320 314 292 295 253 249 252 257 263 268 256 257 258 256
nan nan nan nan nan nan nan nan nan nan 254 257 253 251 250 236 236 249 238 226 221 206 222 235 nan 262 302 309 304 312 313 321 321 306 287 245 219 242 267 264 255 273 269 259
nan nan nan nan nan nan nan nan 250 262 257 248 246 244 243 239 240 237 216 214 207 217 210 234 258 257 275 279 274 290 302 318 343 307 314 171 321 275 286 292 303 283 270 263
nan nan nan nan nan nan nan nan 260 263 nan 244 243 237 237 240 246 220 221 221 218 227 206 219 257 254 255 273 267 276 285 317 334 306 322 343 318 319 304 287 269 292 308 315
nan nan nan nan nan nan nan nan nan nan 250 247 238 nan nan nan nan 225 223 227 215 200 201 223 242 244 263 268 257 256 288 274 273 284 290 306 312 295 278 289 281 287 280 282
nan nan nan nan nan nan nan nan nan nan nan nan nan nan nan nan nan nan 219 221 214 203 206 210 229 247 255 261 249 238 229 251 258 267 268 253 250 262 277 282 281 278 282 284
nan nan nan nan nan nan nan nan nan nan nan nan nan nan nan nan nan nan 212 214 213 207 209 208 230 242 246 250 249 234 234 235 242 249 252 252 253 257 261 263 271 274 278 279
nan nan nan nan nan nan nan nan nan nan nan 225 nan 222 nan nan nan nan nan 212 208 208 209 214 221 237 250 256 235 226 225 230 235 241 244 252 255 256 258 258 259 268 269 275
nan nan nan nan nan nan nan nan nan nan nan nan nan nan nan nan nan nan nan 215 212 210 213 209 214 230 240 245 241 237 231 230 229 228 226 235 249 256 261 263 262 248 252 256